Location: Daouli
(14.8671°N, 3.2030°W)
Time: 01:35:34
(UTC+00:00)

CZ-2C R/B - Pass Details

Date: 29 October 2020
Orbit: 391 x 586 km, 35.0° (Epoch: 02 December)

Event Time Altitude Azimuth Distance (km) Brightness Sun altitude
Rises 17:57:23 0° 198° (SSW) 2,780 5.4 -3.7°
Reaches altitude 10° 18:00:55 10° 169° (S) 1,858 4.1 -4.5°
Maximum altitude 18:02:49 13° 143° (SE) 1,677 3.6 -5.0°
Drops below altitude 10° 18:04:40 10° 116° (ESE) 1,821 3.5 -5.4°
Enters shadow 18:06:24 - 98° (E) 2,192 3.8 -5.8°
